星链-11715 (STARLINK-11715)

导读

STARLINK-11715是美国于2025年5月21日发射的Starlink卫星,属于SpaceX星链互联网星座项目。星链项目旨在打造全球卫星互联网通信系统,为全球偏远地区、高延迟区域提供低成本高速互联网接入服务,该卫星入轨后将参与星座组网,扩展星链的服务覆盖范围与通信能力。

Basic Information
目录编号:
64076
目录名称:
STARLINK-11715
国际标识:
2025-107N
轨道中心:
EARTH
卫星名称:
星链-11715
卫星全名:
星链-11715 (STARLINK-11715)
卫星状态:
在轨 (已飞行472 天)
发射日期:
2025-05-21 UTC
国别 :
美国 (US)
星等 :
--
Orbit Information
数据来源 国际轨道数据
星历时间: 2026-09-05T14:00:02+0800
6小时前
查看轨道信息
半长轴: 6734.478km
偏心率: 0.0001649
轨道倾角: 43.001°
近地点辐角 268.577°
升交点赤经 95.686°
平近点角 342.199°
近地点: 355.23km
远地点: 357.452km
周期: 91.668分钟
每日圈数: 15.708941
Detailed Information
固有亮度:
5
最大亮度:
2.5
卫星平台:
Starlink V1.0
覆盖范围:
全球
运营商:
太空探索技术公司
运营商所在国:
美国
制造商(研发单位):
太空探索技术公司
制造商所在国:
美国
使用方式:
暂无
Satellite Introduction
Starlink 计划是 SpaceX 推出的全球卫星互联网项目,通过发射低轨道卫星,为全球尤其是偏远地区提供高速、低延迟的互联网服务。自 2019 年起,Starlink 已部署数千颗卫星,旨在缩小全球数字鸿沟,推动互联网普及。该项目还为军事、航空等行业提供通信支持,带来广泛经济效益。
2D Orbit Map
3D Orbit Map
Orbit Altitude Analysis Chart
Orbit Inclination Analysis Chart
Orbit Comprehensive Analysis Chart
View Comprehensive Chart
Conjunction Data List
Event ID Objects TCA Miss Dist (km) Collision Risk Probability Collision Risk Index (CRI) Action
CDM_260829-061706-354906-407621
2026-08-29T
06:17:53+0000
1.761 km
极远距离
2.00399E-6 低风险 0.41
CDM_260906-102806-194606-407621
2026-09-06T
10:28:36+0000
2.208 km
极远距离
1.722289E-6 低风险 0.4
CDM_260829-053206-354906-407621
2026-08-29T
05:32:08+0000
2.432 km
极远距离
9.716175E-7 极低风险 0.35